STARLINK-4432 (53487 NORAD) Tracking and Keplerian Element Data

This shows tracking and keplerian element data for the satellite.

Feedback or suggestion? Click here.




ElementValue
Catalog53487
NameSTARLINK-4432
Epoch Orbit1521
Epoch Day324.81756788
Epoch Year2022
RAAN83.8863
Inclination97.6579
Eccentricity0.0003251
Argument of Perigee7.8484
Mean Anonmoly352.2791
Mean Motion15.01267512
Decay Rate2.026E-05
L11 53487U 22099Y 22324.81756788 .00002026 00000+0 16228-3 0 9993
L22 53487 97.6579 83.8863 0003251 7.8484 352.2791 15.01267512 15218



Live tracking and technical data element details for STARLINK-4432 (NORAD 53487). STARLINK-4432 can be tracked NOW for your location showing map with azimuth and elevation plus other details from your city location.







IsCatalogInMostPopularTable: catalog: 53487, numindb: 5
Update: records affected: 1



GetName: 53487 STARLINK-4432

Hit Count: updated at: Thu, 08 Dec 2022 18:53:59 GMT